Regional Weather Roundup
Issued by NWS

Home | Current Version | Previous Version | Graphics & Text | Print | Product List | Glossary Off
Versions: 1 2 3 4 5 6 7 8 9 10 11 12 13 14 15 16 17 18 19 20 21 22 23 24 25 26 27 28 29 30 31 32 33 34 35 36 37 38 39 40 41 42 43 44 45 46 47 48 49 50

000
ASUS43 KDMX 070006
RWRIA

WEATHER ROUNDUP FOR IOWA
NATIONAL WEATHER SERVICE DES MOINES IA
600 PM CST TUE DEC 06 2016

NOTE: "FAIR" INDICATES FEW OR NO CLOUDS BELOW 12,000 FEET WITH NO
SIGNIFICANT WEATHER AND/OR OBSTRUCTIONS TO VISIBILITY.

* - THESE STATIONS ARE NOT NWS STATIONS...THUS NOT UNDER NWS
QUALITY CONTROL.  THEY ALSO DO NOT REPORT WEATHER SUCH
AS PRECIPITATION OR FOG.

IAZ001>003-012>014-020>022-031>034-043>046-070100-
   NORTHWEST IOWA

CITY           SKY/WX    TMP DP  RH WIND       PRES   REMARKS
CARROLL *      CLEAR     27  16  63 W15G21    29.97R WCI  15
CHEROKEE *     CLEAR     21  11  66 W13       29.98R WCI   9
DENISON *      CLEAR     25  14  63 W10       29.98R WCI  15
LE MARS *      CLEAR     21  10  63 W12       30.01R WCI   9
ORANGE CITY *  CLEAR     18  10  73 W18       29.95R WCI   2
SHELDON *      PTCLDY    18  12  79 W24G30    29.92R WCI   0
SIOUX CITY     CLEAR     25  11  55 NW13      30.02R WCI  14
6HR MIN TEMP:  25; 6HR MAX TEMP:  33;

SPENCER        CLEAR     20  11  68 W25G39    29.92R WCI   2
6HR MIN TEMP:  20; 6HR MAX TEMP:  26;

STORM LAKE *   CLEAR     21  10  63 W23G30    29.94R WCI   5
$$

IAZ055>058-069>071-079>083-090>094-070100-
   SOUTHWEST IOWA

CITY           SKY/WX    TMP DP  RH WIND       PRES   REMARKS
ATLANTIC *     CLEAR     27  16  63 W9        30.02R WCI  17
AUDUBON *      CLEAR     25  16  68 W5        30.00R WCI  19
CLARINDA *     CLEAR     30  14  51 W9        30.07R WCI  22
COUNCIL BLFS * CLEAR     30  10  43 W13G21    30.03R WCI  20
CRESTON *      CLEAR     25  14  63 W9        30.02R WCI  15
HARLAN  *      CLEAR     25  16  68 W9        30.05R WCI  15
LAMONI         CLEAR     28  16  60 W9        30.02R WCI  19
6HR MIN TEMP:  28; 6HR MAX TEMP:  35;

RED OAK *      CLEAR     27  14  59 W6        30.05R WCI  20
SHENANDOAH *   CLEAR     28  14  54 W7        30.07R WCI  21
$$

IAZ047>049-059>061-072>074-084-070100-
   CENTRAL IOWA

CITY           SKY/WX    TMP DP  RH WIND       PRES   REMARKS
AMES           CLEAR     27  18  69 W10       29.98R WCI  17
6HR MIN TEMP:  27; 6HR MAX TEMP:  31;

ANKENY *       CLEAR     28  16  59 W10       30.01R WCI  19
BOONE *        CLEAR     27  16  63 W13       29.95R WCI  16
CHARITON *       N/A     28  16  59 W9        30.00R WCI  20
DES MOINES     PTCLDY    30  15  53 W14       30.00R WCI  19
6HR MIN TEMP:  29; 6HR MAX TEMP:  35;

GRINNELL*      CLEAR     28  19  69 W12       29.97R WCI  18
KNOXVILLE *    CLEAR     28  16  59 W13       29.98R WCI  18
MARSHALLTOWN   CLEAR     26  17  68 W16       29.95R WCI  14
6HR MIN TEMP:  26; 6HR MAX TEMP:  30;

NEWTON *       CLEAR     27  18  69 W12       29.98R WCI  16
PELLA *        CLEAR     30  17  57 W15       30.00R WCI  19
PERRY *          N/A     27  21  77 W13       29.99R WCI  16
$$

IAZ004>006-015-016-023>025-035-036-070100-
   NORTH CENTRAL IOWA

CITY           SKY/WX    TMP DP  RH WIND       PRES   REMARKS
ALGONA *       PTCLDY    23  14  68 W22G31    29.92R WCI   8
CLARION *      PTCLDY    23  18  80 W14       29.94R WCI  11
ESTHERVILLE    CLEAR     20  12  71 W26G36    29.88R WCI   2
6HR MIN TEMP:  20; 6HR MAX TEMP:  24;

FORT DODGE *   CLEAR     25  10  54 W13       29.96R WCI  13
MASON CITY     CLEAR     22  13  68 W25G31    29.88R WCI   5
6HR MIN TEMP:  22; 6HR MAX TEMP:  26;

FOREST CITY *    N/A     23  14  68 W13G20    29.88R WCI  11
WEBSTER CITY * CLEAR     25  18  74 W16       29.93R WCI  12
IOWA FALLS *     N/A     26  19  74 W16       29.94R WCI  13
$$

IAZ007>011-017>019-026>030-037>042-050>054-066-070100-
   NORTHEAST IOWA

CITY           SKY/WX    TMP DP  RH WIND       PRES   REMARKS
CEDAR RAPIDS   CLEAR     27  21  78 W13       29.93R WCI  16
6HR MIN TEMP:  27; 6HR MAX TEMP:  30;

CHARLES CITY * CLEAR     23  16  74 W17G24    29.88R WCI   9
CLINTON *      CLEAR     28  23  81 W12       29.95R WCI  18
DECORAH *      CLOUDY    25  16  68 W10G21    29.85R WCI  15
DUBUQUE        CLOUDY    26  19  74 W17       29.88S WCI  13
6HR MIN TEMP:  25; 6HR MAX TEMP:  29;

MONTICELLO *   PTCLDY    27  19  74 W13       29.92R WCI  16
OELWEIN *      CLOUDY    27  19  74 W18       29.90R WCI  13
WATERLOO       CLEAR     25  16  68 W17       29.92R WCI  12
6HR MIN TEMP:  25; 6HR MAX TEMP:  28;

$$

IAZ064-065-067-068-078-070100-
   EAST CENTRAL IOWA

CITY           SKY/WX    TMP DP  RH WIND       PRES   REMARKS
DAVENPORT      CLEAR     29  22  75 W14       29.95R WCI  18
6HR MIN TEMP:  29; 6HR MAX TEMP:  34;

IOWA CITY      CLEAR     29  20  69 W8        29.97R WCI  21
6HR MIN TEMP:  28; 6HR MAX TEMP:  34;

MUSCATINE *    CLEAR     30  19  64 W10       29.98R WCI  21
QUAD CITIES    CLEAR     30  20  66 W13G20    29.96R WCI  20
6HR MIN TEMP:  30; 6HR MAX TEMP:  37;

$$

IAZ062-063-075>077-085>089-095>099-070100-
   SOUTHEAST IOWA

CITY           SKY/WX    TMP DP  RH WIND       PRES   REMARKS
BURLINGTON     CLEAR     32  21  64 W7        29.99R WCI  26
6HR MIN TEMP:  31; 6HR MAX TEMP:  37;

FAIRFIELD *    CLEAR     28  19  69 SW6       29.99R WCI  22
FORT MADISON * CLEAR     32  19  59 W9        30.00R WCI  24
KEOKUK *       CLEAR     32  19  59 W7        30.00R WCI  26
OSKALOOSA *      N/A     28  20  72 W9        29.99R WCI  19
CENTERVILLE *    N/A     28  18  64 W12       30.02R WCI  18
OTTUMWA        CLEAR     29  18  63 W8        29.99R WCI  21
6HR MIN TEMP:  29; 6HR MAX TEMP:  35;

WASHINGTON *   CLEAR     30  19  64 W9        29.99R WCI  22
$$

ABBREVIATIONS USED IN REMARKS
   TC - TEMPERATURES IN CELSIUS
  WCI - WIND CHILL INDEX
   HX - HEAT INDEX
  VSB - VISIBILITY
$$





USA.gov is the U.S. government's official web portal to all federal, state and local government web resources and services.